星链-6172 (STARLINK-6172 )

导读

STARLINK-6172是美国太空探索技术公司(SpaceX)星链(Starlink)互联网星座组网卫星,于2023年6月23日由SpaceX发射升空,旨在为全球范围提供高速低延迟的卫星互联网服务,补充星链星座的在轨覆盖能力,推进星座部署进程,增强全球偏远地区网络覆盖。

基本信息
目录编号:
57130
目录名称:
STARLINK-6172
国际标识:
2023-090AF
轨道中心:
EARTH
卫星名称:
星链-6172
卫星全名:
星链-6172 (STARLINK-6172 )
卫星状态:
在轨 (已飞行1087 天)
发射日期:
2023-06-23 UTC
国别 :
美国 (US)
星等 :
--
轨道信息
数据来源 国际轨道数据 AOE轨道数据
星历时间 2026-06-14T20:24:19+0800
10小时前
查看轨道信息
2026-06-13T06:00:00+0800
2天前
查看轨道信息
半长轴 6861.209km 6861.214km
偏心率 0.0000563 0.0001421
轨道倾角 43.004° 43.001°
近地点辐角 339.380° 332.888°
升交点赤经 94.486° 103.523°
平近点角 20.703° 216.798°
近地点 482.685km 482.102km
远地点 483.459km 484.052km
周期 94.267分钟 94.267分钟
每日圈数 15.275726 15.275708
详细信息
固有亮度:
5
最大亮度:
2.4
卫星平台:
Starlink v1.5
覆盖范围:
全球
运营商:
太空探索技术公司
运营商所在国:
美国
制造商(研发单位):
太空探索技术公司
制造商所在国:
美国
使用方式:
暂无
卫星简介
星链(Starlink)计划是由太空探索技术公司(SpaceX)提出的一个巨型低轨卫星互联网星座项目,计划在2019年至2024年间在太空搭建由约1.2万颗卫星组成的“星链”网络,其中1584颗将部署在地球上空550千米处的近地轨道,并从2020年开始工作。该卫星仍在工作。
2D轨道图
3D轨道图
轨道高度分析图
轨道倾角分析图
轨道综合分析图
查看轨道综合分析图